Regional Weather Roundup
Issued by NWS

Home | Current Version | Previous Version | Graphics & Text | Print | Product List | Glossary On
Versions: 1 2 3 4 5 6 7 8 9 10 11 12 13 14 15 16 17 18 19 20 21 22 23 24 25 26 27
000
ASUS45 KBOU 260807
RWRCO

WEATHER ROUNDUP FOR COLORADO
NATIONAL WEATHER SERVICE DENVER/BOULDER CO
200 AM MDT MON JUN 26 2017

NOTE: "FAIR" INDICATES FEW OR NO CLOUDS BELOW 12000 FEET WITH NO
SIGNIFICANT WEATHER AND/OR OBSTRUCTIONS TO VISIBILITY.

COZ001>005-013-030-031-260900-
...NORTHWEST COLORADO...

CITY           SKY/WX    TMP DP  RH WIND       PRES   REMARKS
CRAIG          FAIR      46  36  68 CALM      30.32R
HAYDEN         FAIR      54  28  37 E7        30.33S
MEEKER         FAIR      53  34  48 E5        30.32R
RABBIT EARS PA FAIR      50  28  43 E9        30.59S
STEAMBOAT SPGS FAIR      48  33  54 CALM      30.37R
WALDEN         FAIR      39  30  70 SE7       30.46S
$$

COZ006>008-011-260900-
...WEST CENTRAL VALLEYS...

CITY           SKY/WX    TMP DP  RH WIND       PRES   REMARKS
GRAND JUNCTION FAIR      74  29  19 SW6       30.13S
MONTROSE       FAIR      63  29  27 SE9       30.23S
EAGLE          FAIR      54  31  41 CALM      30.37R
RIFLE          FAIR      58  36  43 NE3       30.24R
DELTA          FAIR      69  30  23 E3        30.19R
NUCLA          FAIR      63  27  25 E12       30.25S
$$

COZ017>023-064>068-260900-
...SOUTHWEST COLORADO...

CITY           SKY/WX    TMP DP  RH WIND       PRES   REMARKS
DURANGO        FAIR      56  35  45 E7        30.29R
CORTEZ         FAIR      53  27  36 E5        30.22R
PAGOSA SPRINGS FAIR      56  36  47 CALM      30.39S
TELLURIDE      FAIR      55  26  32 CALM      30.48S
WOLF CREEK PAS FAIR      43  34  70 CALM      30.72F
$$

COZ009-010-012-014-032>034-037-058>063-260900-
...CENTRAL COLORADO...

CITY           SKY/WX    TMP DP  RH WIND       PRES   REMARKS
ASPEN          FAIR      48  33  56 S6        30.40S
BUENA VISTA    CLOUDY    59  51  74 SE8       30.44S
COPPER MTN     FAIR      46  23  39 W8        30.69F
BERTHOUD PASS  FAIR      37  27  65 NW10      30.72S
COTTONWOOD PAS MOCLDY    55  48  76 CALM      30.56S
GUNNISON       FAIR      52  33  48 N7        30.40R
KREMMLING      NOT AVBL
LEADVILLE      FAIR      42  32  67 NE7       30.55S
SALIDA         FAIR      60  55  82 E5        30.49S
SUNLIGHT       FAIR      48  23  37 E3        30.64S
WILKERSON PASS FAIR      45  43  93 SW5       30.67F
$$

COZ069>075-260900-
...SAN LUIS VALLEY/SANGRE DE CRISTO MOUNTAINS...

CITY           SKY/WX    TMP DP  RH WIND       PRES   REMARKS
ALAMOSA        FAIR      57  47  69 SE14      30.37R
DEL NORTE      FAIR      49  38  65 W10       30.43S
LA VETA PASS   LGT RAIN  46  46 100 N12G17    30.69R VSB<1/4
SAGUACHE       FAIR      55  45  67 NE5       30.42R
$$

COZ035-036-038>040-260900-
...NORTHERN COLORADO FRONT RANGE...

CITY           SKY/WX    TMP DP  RH WIND       PRES   REMARKS
DENVER INTL AP FAIR      58  53  84 S12       30.31F
DMNS CITY PARK   N/A     60  54  81 E8        30.31F
AURORA         PTCLDY    57  56  98 S8        30.33F
FRONT RANGE AP FAIR      61  55  82 S14G21    30.33S
ERIE MUNI ARPT FAIR      55  52  89 SW6       30.28F
BOULDER MUN AP FAIR      59  54  82 SW7       30.29F
CENTENNIAL     FAIR      59  54  83 S8        30.34F
BROOMFIELD     FAIR      55  52  88 W3        30.32F
FORT COLLINS   FAIR      58  53  84 CALM      30.29
LONGMONT       FAIR      56  51  84 CALM      30.30F
$$

COZ041-046-047-076>085-087-088-260900-
...PIKES PEAK/PALMER DIVIDE AND SOUTHERN FOOTHILLS...

CITY           SKY/WX    TMP DP  RH WIND       PRES   REMARKS
COLO. SPRINGS  CLOUDY    60  58  92 E5        30.39F
A. F. ACADEMY  CLOUDY    58  58  99 S5        30.39F
SCHRIEVER AFB  MOCLDY    58  57  96 E6        30.39S FOG
CHEYENNE MTN   FOG       55  55  97 S3        30.37S VSB 7/8
ELLICOTT       CLOUDY   N/A N/A N/A SE7       30.37S
FALCON         FOG       56  56  98 SE6       30.42F VSB 1/2
FORT CARSON    CLOUDY    60  57  89 E5        30.36S
LIMON          FAIR      53  53 100 CALM      30.35F
MONUMENT HILL  FAIR      52  50  93 S7        30.42F
CANON CITY     CLOUDY    64  61  88 E6        30.34S
WALSENBURG     CLOUDY    63  61  94 NE5       30.36S
TRINIDAD       CLOUDY    60  57  89 NE6       30.35R FOG
$$

COZ042>045-048>051-090-091-260900-
...NORTHEAST COLORADO...

CITY           SKY/WX    TMP DP  RH WIND       PRES   REMARKS
GREELEY ARPT   FAIR      53  51  93 N3        30.29F
AKRON          FAIR      57  53  86 S9        30.29F
BURLINGTON     CLOUDY    58  57  97 S7        30.30F
WRAY           FAIR     N/A N/A N/A SW6       30.26F
YUMA           FAIR      50  50 100 S6        30.26F
STERLING       FAIR      54  52  94 S3        30.26S
HOLYOKE        NOT AVBL
FORT MORGAN    FAIR      55  52  90 SW5       30.28F
$$

COZ086-089-092>099-260900-
...SOUTHEAST COLORADO...

CITY           SKY/WX    TMP DP  RH WIND       PRES   REMARKS
PUEBLO         CLOUDY    62  60  93 E10       30.31S FOG
LA JUNTA       CLOUDY    63  58  83 E10       30.29S
LAMAR          CLOUDY    62  54  74 E9        30.27F
SPRINGFIELD      N/A     59  57  93 SE7       30.29F
$$




USA.gov is the U.S. government's official web portal to all federal, state and local government web resources and services.